RYR457 EGCC-EGKK

Flight info

Callsign RYR457
Flight time 0h 44m
Altitude 19000
Route SANBA1R SANBA DCT UTUXA DCT HON N859 KIDLI KIDLI1G
Aircraft B738/M-SDE2E3FGHIRWXY/LB1

Departure

Time 2026-05-07 20:03
Airport Manchester Airport (EGCC)

Arrival

Time 2026-05-07 20:47
Airport London Gatwick Airport (EGKK)
Time Latitude Longitude Altitude Speed Heading
2026-05-07 19:48 53.36069 -2.26851 236 ft 0 kts 313°
2026-05-07 19:56 53.36059 -2.26833 237 ft 2 kts 319°
2026-05-07 19:57 53.36046 -2.26816 235 ft 2 kts 325°
2026-05-07 19:57 53.36032 -2.26802 234 ft 2 kts 339°
2026-05-07 19:57 53.36016 -2.26797 237 ft 2 kts
2026-05-07 19:57 53.36001 -2.26806 236 ft 2 kts 39°
2026-05-07 19:58 53.35993 -2.26818 239 ft 1 kts 50°
2026-05-07 19:58 53.35993 -2.26820 239 ft 0 kts 51°
2026-05-07 20:00 53.36003 -2.26797 237 ft 9 kts 51°
2026-05-07 20:00 53.36045 -2.26711 232 ft 8 kts 54°
2026-05-07 20:00 53.36063 -2.26611 230 ft 10 kts 108°
2026-05-07 20:01 53.36073 -2.26461 228 ft 19 kts 54°
2026-05-07 20:01 53.36142 -2.26317 226 ft 28 kts 49°
2026-05-07 20:01 53.36270 -2.26016 222 ft 13 kts 84°
2026-05-07 20:01 53.36286 -2.25843 220 ft 17 kts 99°
2026-05-07 20:02 53.36203 -2.25782 221 ft 17 kts 231°
2026-05-07 20:02 53.36185 -2.25820 221 ft 0 kts 231°
2026-05-07 20:02 53.36175 -2.25841 222 ft 16 kts 232°
2026-05-07 20:02 53.35940 -2.26326 228 ft 90 kts 231°
2026-05-07 20:03 53.35406 -2.27430 246 ft 152 kts 231°
2026-05-07 20:03 53.34655 -2.28979 542 ft 183 kts 231°
2026-05-07 20:03 53.33848 -2.30689 1380 ft 189 kts 230°
2026-05-07 20:03 53.33102 -2.32436 2378 ft 181 kts 233°
2026-05-07 20:04 53.32441 -2.34184 3117 ft 178 kts 238°
2026-05-07 20:04 53.32000 -2.36196 3549 ft 193 kts 258°
2026-05-07 20:04 53.31961 -2.38460 4135 ft 194 kts 269°
2026-05-07 20:04 53.32073 -2.40779 4421 ft 209 kts 267°
2026-05-07 20:05 53.31641 -2.43088 4572 ft 217 kts 226°
2026-05-07 20:05 53.30314 -2.44304 4834 ft 226 kts 193°
2026-05-07 20:05 53.28765 -2.44944 5231 ft 231 kts 196°
2026-05-07 20:05 53.27145 -2.45328 5520 ft 248 kts 171°
2026-05-07 20:06 53.25584 -2.44028 5969 ft 262 kts 146°
2026-05-07 20:06 53.24022 -2.42349 6585 ft 265 kts 153°
2026-05-07 20:06 53.22415 -2.40877 7221 ft 268 kts 155°
2026-05-07 20:06 53.20758 -2.39406 7863 ft 271 kts 155°
2026-05-07 20:07 53.19078 -2.37929 8557 ft 274 kts 155°
2026-05-07 20:07 53.17383 -2.36447 9243 ft 277 kts 155°
2026-05-07 20:07 53.15667 -2.34948 9940 ft 280 kts 155°
2026-05-07 20:07 53.13912 -2.33417 10401 ft 292 kts 155°
2026-05-07 20:08 53.12038 -2.31788 10556 ft 314 kts 155°
2026-05-07 20:08 53.10067 -2.30071 10819 ft 330 kts 155°
2026-05-07 20:08 53.08036 -2.28300 11354 ft 337 kts 155°
2026-05-07 20:08 53.05948 -2.26478 12013 ft 340 kts 155°
2026-05-07 20:09 53.03844 -2.24647 12727 ft 343 kts 154°
2026-05-07 20:09 53.01720 -2.22803 13420 ft 347 kts 154°
2026-05-07 20:09 52.99572 -2.20940 14102 ft 350 kts 154°
2026-05-07 20:10 52.95219 -2.17169 15517 ft 352 kts 154°
2026-05-07 20:10 52.93055 -2.15296 16385 ft 350 kts 154°
2026-05-07 20:10 52.90900 -2.13432 17260 ft 347 kts 155°
2026-05-07 20:10 52.88764 -2.11586 18090 ft 346 kts 155°
2026-05-07 20:11 52.86651 -2.09761 18742 ft 348 kts 154°
2026-05-07 20:11 52.84504 -2.07899 19007 ft 348 kts 154°
2026-05-07 20:11 52.82351 -2.06039 19022 ft 348 kts 154°
2026-05-07 20:11 52.80211 -2.04196 19035 ft 346 kts 154°
2026-05-07 20:12 52.78062 -2.02350 19045 ft 346 kts 155°
2026-05-07 20:12 52.75929 -2.00521 19039 ft 346 kts 154°
2026-05-07 20:12 52.73789 -1.98689 19034 ft 346 kts 154°
2026-05-07 20:12 52.71657 -1.96865 19049 ft 346 kts 154°
2026-05-07 20:13 52.69514 -1.95033 19047 ft 346 kts 154°
2026-05-07 20:13 52.67370 -1.93202 19050 ft 347 kts 154°
2026-05-07 20:13 52.65251 -1.91395 19048 ft 347 kts 154°
2026-05-07 20:13 52.63102 -1.89564 19050 ft 348 kts 154°
2026-05-07 20:14 52.60951 -1.87733 19036 ft 348 kts 154°
2026-05-07 20:14 52.58796 -1.85900 19050 ft 348 kts 155°
2026-05-07 20:14 52.56637 -1.84067 19050 ft 348 kts 155°
2026-05-07 20:14 52.54481 -1.82238 19046 ft 348 kts 155°
2026-05-07 20:15 52.52354 -1.80436 19048 ft 348 kts 155°
2026-05-07 20:15 52.50196 -1.78610 19041 ft 348 kts 155°
2026-05-07 20:15 52.48040 -1.76787 19048 ft 348 kts 155°
2026-05-07 20:15 52.45889 -1.74971 19048 ft 348 kts 155°
2026-05-07 20:16 52.43732 -1.73153 19051 ft 348 kts 155°
2026-05-07 20:16 52.41582 -1.71341 19050 ft 347 kts 155°
2026-05-07 20:16 52.39433 -1.69531 19049 ft 347 kts 155°
2026-05-07 20:16 52.37279 -1.67720 19049 ft 347 kts 155°
2026-05-07 20:17 52.35102 -1.66006 19043 ft 346 kts 160°
2026-05-07 20:17 52.32864 -1.64728 19055 ft 345 kts 164°
2026-05-07 20:17 52.30563 -1.63544 19050 ft 345 kts 165°
2026-05-07 20:17 52.28273 -1.62392 19063 ft 345 kts 165°
2026-05-07 20:18 52.25977 -1.61234 19057 ft 345 kts 165°
2026-05-07 20:18 52.23685 -1.60067 19062 ft 345 kts 165°
2026-05-07 20:18 52.21392 -1.58891 19071 ft 345 kts 164°
2026-05-07 20:18 52.19102 -1.57710 19072 ft 345 kts 164°
2026-05-07 20:19 52.16808 -1.56523 19075 ft 345 kts 164°
2026-05-07 20:19 52.14522 -1.55339 18963 ft 344 kts 164°
2026-05-07 20:19 52.12262 -1.54167 18685 ft 335 kts 164°
2026-05-07 20:19 52.10086 -1.53037 18429 ft 322 kts 164°
2026-05-07 20:20 52.07986 -1.51949 18139 ft 311 kts 164°
2026-05-07 20:20 52.05947 -1.50895 17862 ft 304 kts 164°
2026-05-07 20:20 52.03951 -1.49865 17589 ft 301 kts 164°
2026-05-07 20:20 52.01962 -1.48842 17330 ft 306 kts 164°
2026-05-07 20:21 51.99914 -1.47788 17072 ft 309 kts 164°
2026-05-07 20:21 51.97862 -1.46732 16810 ft 308 kts 164°
2026-05-07 20:21 51.95820 -1.45681 16537 ft 307 kts 164°
2026-05-07 20:21 51.93778 -1.44631 16281 ft 307 kts 164°
2026-05-07 20:22 51.91745 -1.43587 16025 ft 306 kts 164°
2026-05-07 20:22 51.89741 -1.42559 15776 ft 305 kts 164°
2026-05-07 20:22 51.87718 -1.41522 15524 ft 304 kts 164°
2026-05-07 20:22 51.85698 -1.40489 15275 ft 304 kts 164°
2026-05-07 20:23 51.83688 -1.39460 15101 ft 301 kts 164°
2026-05-07 20:23 51.81707 -1.38446 15052 ft 296 kts 164°
2026-05-07 20:23 51.79748 -1.37445 15054 ft 296 kts 164°
2026-05-07 20:23 51.77779 -1.36439 15058 ft 298 kts 163°
2026-05-07 20:24 51.75878 -1.35088 15049 ft 300 kts 152°
2026-05-07 20:24 51.74107 -1.33313 15044 ft 297 kts 149°
2026-05-07 20:24 51.72414 -1.31482 15032 ft 287 kts 148°
2026-05-07 20:24 51.70794 -1.29714 15026 ft 274 kts 148°
2026-05-07 20:25 51.69265 -1.28058 15027 ft 262 kts 149°
2026-05-07 20:25 51.67774 -1.26462 15031 ft 254 kts 149°
2026-05-07 20:25 51.66268 -1.24867 15076 ft 269 kts 149°
2026-05-07 20:25 51.64605 -1.23123 15085 ft 294 kts 149°
2026-05-07 20:26 51.62847 -1.21286 15077 ft 317 kts 149°
2026-05-07 20:26 51.60940 -1.19298 15059 ft 330 kts 149°
2026-05-07 20:26 51.59003 -1.17278 15053 ft 332 kts 149°
2026-05-07 20:26 51.57063 -1.15259 15039 ft 331 kts 149°
2026-05-07 20:27 51.55139 -1.13262 15037 ft 329 kts 149°
2026-05-07 20:27 51.53215 -1.11269 15040 ft 328 kts 149°
2026-05-07 20:27 51.51297 -1.09287 15041 ft 328 kts 149°
2026-05-07 20:27 51.49375 -1.07303 15042 ft 328 kts 149°
2026-05-07 20:28 51.47452 -1.05322 15041 ft 328 kts 149°
2026-05-07 20:28 51.45530 -1.03344 15045 ft 328 kts 149°
2026-05-07 20:28 51.43631 -1.01390 15052 ft 329 kts 149°
2026-05-07 20:28 51.41701 -0.99409 15053 ft 329 kts 149°
2026-05-07 20:29 51.39768 -0.97426 15055 ft 330 kts 149°
2026-05-07 20:29 51.37827 -0.95436 15045 ft 331 kts 149°
2026-05-07 20:29 51.35890 -0.93453 15056 ft 331 kts 149°
2026-05-07 20:29 51.33948 -0.91467 15061 ft 331 kts 149°
2026-05-07 20:30 51.32003 -0.89480 15073 ft 332 kts 149°
2026-05-07 20:30 51.30055 -0.87491 15076 ft 332 kts 149°
2026-05-07 20:30 51.28127 -0.85525 15079 ft 332 kts 149°
2026-05-07 20:30 51.26180 -0.83541 15077 ft 334 kts 149°
2026-05-07 20:31 51.24160 -0.81489 15097 ft 354 kts 149°
2026-05-07 20:31 51.22025 -0.79322 15093 ft 370 kts 149°
2026-05-07 20:31 51.19882 -0.77143 15068 ft 359 kts 149°
2026-05-07 20:31 51.17802 -0.75029 15026 ft 349 kts 149°
2026-05-07 20:32 51.15783 -0.72982 14950 ft 338 kts 149°
2026-05-07 20:32 51.13831 -0.71007 14855 ft 326 kts 149°
2026-05-07 20:32 51.11944 -0.69099 14669 ft 318 kts 149°
2026-05-07 20:32 51.10108 -0.67251 14425 ft 313 kts 149°
2026-05-07 20:33 51.08272 -0.65403 14016 ft 314 kts 149°
2026-05-07 20:33 51.06421 -0.63525 13676 ft 312 kts 147°
2026-05-07 20:33 51.04926 -0.61052 13381 ft 312 kts 123°
2026-05-07 20:33 51.03929 -0.58027 13165 ft 307 kts 118°
2026-05-07 20:34 51.03007 -0.54991 12895 ft 303 kts 118°
2026-05-07 20:34 51.02089 -0.51997 12637 ft 299 kts 118°
2026-05-07 20:34 51.01174 -0.49040 12388 ft 297 kts 118°
2026-05-07 20:34 51.00257 -0.46108 12137 ft 295 kts 118°
2026-05-07 20:35 50.99341 -0.43194 11888 ft 294 kts 118°
2026-05-07 20:35 50.98428 -0.40297 11647 ft 293 kts 118°
2026-05-07 20:35 50.97530 -0.37449 11410 ft 292 kts 118°
2026-05-07 20:35 50.96620 -0.34569 11168 ft 291 kts 118°
2026-05-07 20:36 50.95714 -0.31700 10922 ft 291 kts 118°
2026-05-07 20:36 50.94899 -0.28758 10559 ft 296 kts 106°
2026-05-07 20:36 50.94530 -0.25506 10189 ft 300 kts 95°
2026-05-07 20:36 50.94728 -0.22215 9753 ft 303 kts 68°
2026-05-07 20:37 50.95912 -0.19511 9336 ft 300 kts 37°
2026-05-07 20:37 50.97669 -0.17810 9016 ft 293 kts 17°
2026-05-07 20:37 50.99659 -0.17507 8493 ft 294 kts 348°
2026-05-07 20:37 51.01517 -0.18714 8187 ft 287 kts 328°
2026-05-07 20:38 51.02965 -0.20788 7985 ft 278 kts 303°
2026-05-07 20:38 51.03748 -0.23590 7483 ft 282 kts 281°
2026-05-07 20:38 51.03933 -0.26703 7121 ft 282 kts 272°
2026-05-07 20:38 51.03818 -0.29746 6999 ft 273 kts 263°
2026-05-07 20:39 51.03552 -0.32694 6811 ft 271 kts 261°
2026-05-07 20:39 51.03248 -0.35740 6172 ft 281 kts 261°
2026-05-07 20:39 51.02942 -0.38770 5774 ft 275 kts 261°
2026-05-07 20:39 51.02647 -0.41742 5425 ft 268 kts 261°
2026-05-07 20:40 51.02368 -0.44586 5163 ft 259 kts 261°
2026-05-07 20:40 51.02099 -0.47376 4884 ft 251 kts 261°
2026-05-07 20:40 51.01915 -0.50096 4593 ft 245 kts 274°
2026-05-07 20:40 51.02439 -0.52599 4321 ft 239 kts 306°
2026-05-07 20:41 51.03693 -0.54295 3949 ft 239 kts 338°
2026-05-07 20:41 51.05277 -0.55011 3600 ft 235 kts 349°
2026-05-07 20:41 51.06880 -0.55528 3212 ft 235 kts 351°
2026-05-07 20:41 51.08457 -0.55815 2991 ft 223 kts 10°
2026-05-07 20:42 51.09726 -0.54798 2969 ft 196 kts 55°
2026-05-07 20:42 51.10180 -0.52934 3001 ft 173 kts 79°
2026-05-07 20:42 51.10460 -0.51080 3006 ft 171 kts 78°
2026-05-07 20:42 51.10728 -0.49243 3005 ft 169 kts 79°
2026-05-07 20:43 51.10980 -0.47422 3015 ft 168 kts 79°
2026-05-07 20:43 51.11225 -0.45602 2996 ft 167 kts 79°
2026-05-07 20:43 51.11468 -0.43794 2987 ft 167 kts 79°
2026-05-07 20:43 51.11712 -0.41970 2922 ft 172 kts 79°
2026-05-07 20:44 51.11965 -0.40088 2705 ft 172 kts 79°
2026-05-07 20:44 51.12212 -0.38258 2473 ft 167 kts 79°
2026-05-07 20:44 51.12455 -0.36454 2249 ft 168 kts 79°
2026-05-07 20:44 51.12691 -0.34652 2277 ft 165 kts 80°
2026-05-07 20:45 51.12922 -0.32795 1838 ft 179 kts 79°
2026-05-07 20:45 51.13179 -0.30930 1524 ft 165 kts 79°
2026-05-07 20:45 51.13414 -0.29219 1285 ft 155 kts 79°
2026-05-07 20:45 51.13635 -0.27549 1087 ft 152 kts 79°
2026-05-07 20:46 51.13851 -0.25919 918 ft 149 kts 78°
2026-05-07 20:46 51.14083 -0.24329 752 ft 148 kts 77°
2026-05-07 20:46 51.14306 -0.22733 539 ft 146 kts 78°
2026-05-07 20:46 51.14520 -0.21155 300 ft 145 kts 78°
2026-05-07 20:47 51.14726 -0.19643 214 ft 126 kts 78°
2026-05-07 20:47 51.14881 -0.18512 200 ft 83 kts 78°
2026-05-07 20:47 51.14975 -0.17838 212 ft 42 kts 77°
2026-05-07 20:47 51.15051 -0.17411 208 ft 39 kts 67°
2026-05-07 20:48 51.15159 -0.17226 201 ft 11 kts 345°
2026-05-07 20:48 51.15190 -0.17253 210 ft 0 kts 327°
2026-05-07 20:48 51.15211 -0.17264 207 ft 10 kts 352°
2026-05-07 20:49 51.15312 -0.17195 208 ft 20 kts 47°
2026-05-07 20:49 51.15352 -0.16993 204 ft 19 kts 79°
2026-05-07 20:49 51.15375 -0.16859 211 ft 19 kts 73°